Погода в Местре

Италия     45°29′51″N   12°14′54″E
темп.,
°C
ветер,
м/с
пор.,
м/с
влажн.,
%
обл.,
%
осадки,
мм/ч
давл.,
гПа
погр.,
м
22 октября, пт
пт2223:00+13св1192100 0.1 101444
02:00+13ссз229295 0.1 101440
05:00+14с1188100 0.0 101448
08:00+14ссз118685 0.0 101438
11:00+17в117232 0.0 1016353
14:00+19юз226336 0.0 1015818
17:00+19ю33654 0.0 1015548
20:00+16ю46852 0.4 1017124
23 октября, сб
сб2323:00+14ссз12922 1.5 101931
02:00+13ссв23965 2.4 101975
05:00+12ссв35961 0.0 1019132
08:00+12ссв46900 0.0 1020148
11:00+16св44631 0.0 1022316
14:00+19всв33550 0.0 1022703
17:00+18вюв33640 0.0 1022336
20:00+14в47760 0.0 1024211
24 октября, вс
вс2423:00+12св58770 0.0 1026284
02:00+11ссв35771 0.0 1027130
05:00+10св46800 0.0 1026142
08:00+10св46751 0.0 1027147
11:00+14всв35580 0.0 1028430
14:00+16всв33480 0.0 1027718
17:00+16вюв33520 0.0 1026322
20:00+13в22620 0.0 102697
25 октября, пн
пн2523:00+12св34690 0.0 1027109
02:00+10св33740 0.0 102675
05:00+9ссв23750 0.0 102456
08:00+9св3375100 0.0 102476
11:00+12св4557100 0.0 1024363
14:00+15в4448100 0.0 1023694
17:00+14в226334 0.0 1022393
20:00+12св1263100 0.0 1023102
26 октября, вт
вт2623:00+11св335898 0.0 102397
02:00+10св3360100 0.0 102271
05:00+9ссв2366100 0.0 102261
08:00+9ссв2269100 0.0 102255
11:00+13с225292 0.0 1022290
14:00+16всв114089 0.0 1021622
17:00+16вюв114491 0.0 1020112
20:00+15ссв2246100 0.0 102255